Time,TemperatureF,DewpointF,PressureIn,WindDirection,WindDirectionDegrees,WindSpeedMPH,WindSpeedGustMPH,Humidity,HourlyPrecipIn,Conditions,Clouds,dailyrainin,SoftwareType,DateUTC
2013-06-08 00:03:00,50.0,49.0,-100.00,East,95,1.0,7.0,94,0.03,,,-99.99,,2013-06-08 04:03:00,
2013-06-08 00:13:00,50.0,49.0,-100.00,SSE,155,4.0,8.0,94,0.10,,,-99.99,,2013-06-08 04:13:00,
2013-06-08 00:23:00,50.0,49.0,-100.00,SE,125,2.0,13.0,94,0.01,,,-99.99,,2013-06-08 04:23:00,
2013-06-08 00:33:00,50.0,49.0,-100.00,ESE,120,4.0,11.0,94,0.00,,,-99.99,,2013-06-08 04:33:00,
2013-06-08 00:42:00,50.0,49.0,-100.00,ENE,70,4.0,13.0,94,0.13,,,-99.99,,2013-06-08 04:42:00,
2013-06-08 00:53:00,50.0,49.0,-100.00,NW,315,4.0,10.0,95,0.04,,,-99.99,,2013-06-08 04:53:00,
2013-06-08 01:02:00,50.0,49.0,-100.00,NW,325,1.0,10.0,94,0.03,,,-99.99,,2013-06-08 05:02:00,
2013-06-08 01:12:00,50.0,49.0,-100.00,SE,135,2.0,9.0,94,0.00,,,-99.99,,2013-06-08 05:12:00,
2013-06-08 01:22:00,50.0,49.0,-100.00,East,95,4.0,10.0,95,0.00,,,-99.99,,2013-06-08 05:22:00,
2013-06-08 01:32:00,50.0,49.0,-100.00,ESE,115,7.0,14.0,95,0.00,,,-99.99,,2013-06-08 05:32:00,
2013-06-08 01:42:00,50.0,49.0,-100.00,SE,130,4.0,14.0,94,0.00,,,-99.99,,2013-06-08 05:42:00,
2013-06-08 01:52:00,50.0,49.0,-100.00,North,-999,-999.0,-999.0,94,-99.99,,,-99.99,,2013-06-08 05:52:00,
2013-06-08 02:02:00,50.0,49.0,-100.00,North,-999,-999.0,-999.0,94,-99.99,,,-99.99,,2013-06-08 06:02:00,
2013-06-08 02:12:00,50.0,49.0,-100.00,SSE,165,6.0,17.0,94,0.03,,,-99.99,,2013-06-08 06:12:00,
2013-06-08 02:22:00,50.0,49.0,-100.00,ESE,110,3.0,13.0,94,0.06,,,-99.99,,2013-06-08 06:22:00,
2013-06-08 02:32:00,50.0,49.0,-100.00,ESE,120,4.0,14.0,94,0.04,,,-99.99,,2013-06-08 06:32:00,
2013-06-08 02:42:00,50.0,49.0,-100.00,SE,145,4.0,11.0,94,0.07,,,-99.99,,2013-06-08 06:42:00,
2013-06-08 02:52:00,50.0,49.0,-100.00,North,-999,-999.0,-999.0,94,0.43,,,-99.99,,2013-06-08 06:52:00,
2013-06-08 03:02:00,50.0,49.0,-100.00,SE,140,4.0,14.0,94,0.30,,,-99.99,,2013-06-08 07:02:00,
2013-06-08 03:12:00,50.0,49.0,-100.00,East,95,3.0,10.0,94,0.98,,,-99.99,,2013-06-08 07:12:00,
2013-06-08 03:22:00,50.0,49.0,-100.00,East,90,3.0,12.0,94,0.59,,,-99.99,,2013-06-08 07:22:00,
2013-06-08 03:32:00,50.0,49.0,-100.00,ESE,105,4.0,9.0,95,1.20,,,-99.99,,2013-06-08 07:32:00,
2013-06-08 03:42:00,50.0,49.0,-100.00,NNE,20,3.0,9.0,95,0.61,,,-99.99,,2013-06-08 07:42:00,
2013-06-08 03:52:00,50.0,49.0,-100.00,NW,305,2.0,10.0,95,0.08,,,-99.99,,2013-06-08 07:52:00,
2013-06-08 04:02:00,50.0,49.0,-100.00,NW,315,2.0,6.0,95,0.06,,,-99.99,,2013-06-08 08:02:00,
2013-06-08 04:12:00,50.0,49.0,-100.00,SE,125,2.0,7.0,95,0.00,,,-99.99,,2013-06-08 08:12:00,
2013-06-08 04:22:00,51.0,49.0,-100.00,ESE,115,1.0,7.0,95,0.00,,,-99.99,,2013-06-08 08:22:00,
2013-06-08 04:32:00,51.0,50.0,-100.00,North,0,1.0,9.0,95,0.00,,,-99.99,,2013-06-08 08:32:00,
2013-06-08 04:42:00,51.0,49.0,-100.00,West,270,2.0,7.0,95,0.01,,,-99.99,,2013-06-08 08:42:00,
2013-06-08 04:52:00,51.0,49.0,-100.00,NW,305,2.0,7.0,95,0.01,,,-99.99,,2013-06-08 08:52:00,
2013-06-08 05:02:00,51.0,49.0,-100.00,WSW,245,0.0,3.0,95,0.01,,,-99.99,,2013-06-08 09:02:00,
2013-06-08 05:12:00,51.0,50.0,-100.00,NW,320,1.0,7.0,95,0.01,,,-99.99,,2013-06-08 09:12:00,
2013-06-08 05:22:00,51.0,50.0,-100.00,NNW,345,2.0,4.0,95,0.01,,,-99.99,,2013-06-08 09:22:00,
2013-06-08 05:33:00,51.0,50.0,-100.00,North,-999,-999.0,-999.0,95,0.08,,,-99.99,,2013-06-08 09:33:00,
2013-06-08 05:43:00,51.0,50.0,-100.00,NW,315,2.0,7.0,95,0.01,,,-99.99,,2013-06-08 09:43:00,
2013-06-08 05:53:00,51.0,50.0,-100.00,WNW,295,2.0,3.0,96,0.41,,,-99.99,,2013-06-08 09:53:00,
2013-06-08 06:03:00,51.0,50.0,-100.00,WNW,295,1.0,6.0,96,0.71,,,-99.99,,2013-06-08 10:03:00,
2013-06-08 06:12:00,51.0,50.0,-100.00,NW,315,2.0,4.0,96,0.55,,,-99.99,,2013-06-08 10:12:00,
2013-06-08 06:22:00,51.0,50.0,-100.00,NW,315,2.0,4.0,96,1.11,,,-99.99,,2013-06-08 10:22:00,
2013-06-08 06:33:00,51.0,50.0,-100.00,West,270,1.0,4.0,96,0.84,,,-99.99,,2013-06-08 10:33:00,
2013-06-08 06:43:00,51.0,50.0,-100.00,WNW,300,1.0,3.0,96,0.48,,,-99.99,,2013-06-08 10:43:00,
2013-06-08 06:52:00,51.0,50.0,-100.00,NW,310,2.0,6.0,97,0.25,,,-99.99,,2013-06-08 10:52:00,
2013-06-08 07:02:00,51.0,50.0,-100.00,WNW,285,1.0,6.0,97,0.11,,,-99.99,,2013-06-08 11:02:00,
2013-06-08 07:12:00,51.0,51.0,-100.00,NNW,330,4.0,8.0,97,0.07,,,-99.99,,2013-06-08 11:12:00,
2013-06-08 07:22:00,52.0,51.0,-100.00,North,0,3.0,8.0,97,0.01,,,-99.99,,2013-06-08 11:22:00,
2013-06-08 07:32:00,52.0,51.0,-100.00,NW,310,4.0,7.0,97,0.00,,,-99.99,,2013-06-08 11:32:00,
2013-06-08 07:42:00,52.0,51.0,-100.00,NW,310,4.0,8.0,97,0.00,,,-99.99,,2013-06-08 11:42:00,
2013-06-08 07:52:00,53.0,52.0,-100.00,NW,315,4.0,9.0,97,0.00,,,-99.99,,2013-06-08 11:52:00,
2013-06-08 08:02:00,53.0,52.0,-100.00,NW,320,5.0,9.0,97,0.00,,,-99.99,,2013-06-08 12:02:00,
2013-06-08 08:12:00,53.0,53.0,-100.00,NW,310,3.0,6.0,97,0.00,,,-99.99,,2013-06-08 12:12:00,
2013-06-08 08:22:00,53.0,53.0,-100.00,NW,325,6.0,9.0,97,0.00,,,-99.99,,2013-06-08 12:22:00,
2013-06-08 08:32:00,54.0,54.0,-100.00,North,-999,-999.0,-999.0,97,0.00,,,-99.99,,2013-06-08 12:32:00,
2013-06-08 08:42:00,55.0,54.0,-100.00,NW,315,3.0,11.0,97,0.00,,,-99.99,,2013-06-08 12:42:00,
2013-06-08 08:52:00,55.0,54.0,-100.00,NW,315,7.0,12.0,96,0.00,,,-99.99,,2013-06-08 12:52:00,
2013-06-08 09:02:00,55.0,54.0,-100.00,NW,325,6.0,12.0,96,0.00,,,-99.99,,2013-06-08 13:02:00,
2013-06-08 09:12:00,55.0,54.0,-100.00,NNW,345,6.0,13.0,95,0.00,,,-99.99,,2013-06-08 13:12:00,
2013-06-08 09:22:00,57.0,55.0,-100.00,NW,325,4.0,9.0,95,0.00,,,-99.99,,2013-06-08 13:22:00,
2013-06-08 09:32:00,57.0,55.0,-100.00,NW,320,6.0,11.0,93,0.00,,,-99.99,,2013-06-08 13:32:00,
2013-06-08 09:42:00,58.0,55.0,-100.00,NW,325,6.0,14.0,89,0.00,,,-99.99,,2013-06-08 13:42:00,
2013-06-08 09:52:00,60.0,56.0,-100.00,North,350,4.0,6.0,87,0.00,,,-99.99,,2013-06-08 13:52:00,
2013-06-08 10:02:00,59.0,56.0,-100.00,NW,310,2.0,7.0,87,0.00,,,-99.99,,2013-06-08 14:02:00,
2013-06-08 10:12:00,60.0,56.0,-100.00,NNW,335,5.0,8.0,86,0.00,,,-99.99,,2013-06-08 14:12:00,
2013-06-08 10:22:00,60.0,56.0,-100.00,NNW,340,4.0,10.0,86,0.00,,,-99.99,,2013-06-08 14:22:00,
2013-06-08 10:32:00,61.0,56.0,-100.00,North,350,6.0,11.0,84,0.00,,,-99.99,,2013-06-08 14:32:00,
2013-06-08 10:42:00,61.0,56.0,-100.00,NNW,345,5.0,9.0,85,0.00,,,-99.99,,2013-06-08 14:42:00,
2013-06-08 10:52:00,61.0,57.0,-100.00,NNW,345,6.0,11.0,86,0.00,,,-99.99,,2013-06-08 14:52:00,
2013-06-08 11:02:00,61.0,56.0,-100.00,NNW,345,6.0,11.0,83,0.00,,,-99.99,,2013-06-08 15:02:00,
2013-06-08 11:12:00,61.0,56.0,-100.00,NW,320,5.0,11.0,85,0.00,,,-99.99,,2013-06-08 15:12:00,
2013-06-08 11:22:00,62.0,57.0,-100.00,NNW,340,5.0,11.0,83,0.00,,,-99.99,,2013-06-08 15:22:00,
2013-06-08 11:33:00,63.0,56.0,-100.00,NNW,340,7.0,12.0,80,0.00,,,-99.99,,2013-06-08 15:33:00,
2013-06-08 11:42:00,63.0,57.0,-100.00,North,10,4.0,11.0,80,0.00,,,-99.99,,2013-06-08 15:42:00,
2013-06-08 11:53:00,64.0,57.0,-100.00,NW,325,6.0,16.0,77,0.00,,,-99.99,,2013-06-08 15:53:00,
2013-06-08 12:03:00,64.0,57.0,-100.00,NNW,345,7.0,16.0,77,0.00,,,-99.99,,2013-06-08 16:03:00,
2013-06-08 12:12:00,64.0,57.0,-100.00,NNW,335,6.0,12.0,77,0.00,,,-99.99,,2013-06-08 16:12:00,
2013-06-08 12:23:00,64.0,57.0,-100.00,WNW,285,4.0,12.0,78,0.00,,,-99.99,,2013-06-08 16:23:00,
2013-06-08 12:33:00,64.0,57.0,-100.00,NNW,345,7.0,14.0,76,0.00,,,-99.99,,2013-06-08 16:33:00,
2013-06-08 12:42:00,64.0,56.0,-100.00,North,0,8.0,14.0,75,0.00,,,-99.99,,2013-06-08 16:42:00,
2013-06-08 12:53:00,64.0,57.0,-100.00,NW,310,7.0,16.0,76,0.00,,,-99.99,,2013-06-08 16:53:00,
2013-06-08 13:02:00,65.0,57.0,-100.00,NNW,340,7.0,13.0,75,0.00,,,-99.99,,2013-06-08 17:02:00,
2013-06-08 13:12:00,64.0,56.0,-100.00,NNW,340,11.0,15.0,75,0.00,,,-99.99,,2013-06-08 17:12:00,
2013-06-08 13:23:00,65.0,57.0,-100.00,NNW,335,7.0,12.0,75,0.00,,,-99.99,,2013-06-08 17:23:00,
2013-06-08 13:32:00,66.0,57.0,-100.00,NNW,340,7.0,20.0,74,0.00,,,-99.99,,2013-06-08 17:32:00,
2013-06-08 13:42:00,66.0,57.0,-100.00,NNW,335,7.0,16.0,72,0.00,,,-99.99,,2013-06-08 17:42:00,
2013-06-08 13:52:00,68.0,58.0,-100.00,NNW,340,6.0,16.0,70,0.00,,,-99.99,,2013-06-08 17:52:00,
2013-06-08 14:02:00,69.0,58.0,-100.00,NNW,340,8.0,16.0,68,0.00,,,-99.99,,2013-06-08 18:02:00,
2013-06-08 14:12:00,67.0,58.0,-100.00,North,350,6.0,12.0,71,0.00,,,-99.99,,2013-06-08 18:12:00,
2013-06-08 14:22:00,67.0,58.0,-100.00,NNW,345,6.0,12.0,72,0.00,,,-99.99,,2013-06-08 18:22:00,
2013-06-08 14:32:00,67.0,58.0,-100.00,NNW,335,6.0,9.0,74,0.00,,,-99.99,,2013-06-08 18:32:00,
2013-06-08 14:42:00,67.0,58.0,-100.00,North,350,6.0,9.0,75,0.00,,,-99.99,,2013-06-08 18:42:00,
2013-06-08 14:52:00,65.0,58.0,-100.00,North,350,7.0,14.0,75,0.00,,,-99.99,,2013-06-08 18:52:00,
2013-06-08 15:03:00,66.0,58.0,-100.00,NW,325,6.0,13.0,75,0.00,,,-99.99,,2013-06-08 19:03:00,
2013-06-08 15:12:00,66.0,58.0,-100.00,NW,325,6.0,13.0,75,0.00,,,-99.99,,2013-06-08 19:12:00,
2013-06-08 15:22:00,65.0,58.0,-100.00,NNW,340,7.0,12.0,75,0.00,,,-99.99,,2013-06-08 19:22:00,
2013-06-08 15:42:00,65.0,58.0,-100.00,NNW,340,6.0,12.0,76,0.00,,,-99.99,,2013-06-08 19:42:00,
2013-06-08 15:53:00,65.0,58.0,-100.00,NNW,330,6.0,10.0,78,0.00,,,-99.99,,2013-06-08 19:53:00,
2013-06-08 16:02:00,65.0,58.0,-100.00,NW,325,6.0,10.0,79,0.00,,,-99.99,,2013-06-08 20:02:00,
2013-06-08 16:12:00,65.0,58.0,-100.00,NNW,345,7.0,12.0,77,0.00,,,-99.99,,2013-06-08 20:12:00,
2013-06-08 16:22:00,65.0,58.0,-100.00,NNW,345,6.0,12.0,76,0.00,,,-99.99,,2013-06-08 20:22:00,
2013-06-08 16:32:00,66.0,57.0,-100.00,NNW,340,10.0,16.0,74,0.00,,,-99.99,,2013-06-08 20:32:00,
2013-06-08 16:42:00,66.0,57.0,-100.00,NNW,340,10.0,16.0,74,0.00,,,-99.99,,2013-06-08 20:42:00,
2013-06-08 16:52:00,65.0,58.0,-100.00,NNW,345,4.0,12.0,76,0.00,,,-99.99,,2013-06-08 20:52:00,
2013-06-08 17:02:00,65.0,58.0,-100.00,NNW,335,4.0,12.0,77,0.00,,,-99.99,,2013-06-08 21:02:00,
2013-06-08 17:12:00,65.0,57.0,-100.00,NNW,340,7.0,12.0,75,0.00,,,-99.99,,2013-06-08 21:12:00,
2013-06-08 17:22:00,65.0,57.0,-100.00,North,355,6.0,12.0,75,0.00,,,-99.99,,2013-06-08 21:22:00,
2013-06-08 17:33:00,65.0,58.0,-100.00,NNW,340,4.0,14.0,77,0.00,,,-99.99,,2013-06-08 21:33:00,
2013-06-08 17:43:00,65.0,58.0,-100.00,WNW,300,2.0,9.0,78,0.00,,,-99.99,,2013-06-08 21:43:00,
2013-06-08 17:52:00,65.0,57.0,-100.00,NNW,345,3.0,12.0,76,0.00,,,-99.99,,2013-06-08 21:52:00,
2013-06-08 18:02:00,64.0,58.0,-100.00,NW,310,2.0,6.0,80,0.00,,,-99.99,,2013-06-08 22:02:00,
2013-06-08 18:12:00,63.0,58.0,-100.00,NW,320,1.0,4.0,83,0.00,,,-99.99,,2013-06-08 22:12:00,
2013-06-08 18:23:00,63.0,59.0,-100.00,NNW,335,1.0,2.0,84,0.00,,,-99.99,,2013-06-08 22:23:00,
2013-06-08 18:33:00,63.0,59.0,-100.00,WNW,285,1.0,4.0,85,0.00,,,-99.99,,2013-06-08 22:33:00,
2013-06-08 18:42:00,63.0,58.0,-100.00,NNW,340,3.0,9.0,84,0.00,,,-99.99,,2013-06-08 22:42:00,
2013-06-08 18:52:00,63.0,58.0,-100.00,NNW,330,2.0,7.0,84,0.00,,,-99.99,,2013-06-08 22:52:00,
2013-06-08 19:02:00,63.0,58.0,-100.00,NNW,340,2.0,5.0,84,0.00,,,-99.99,,2013-06-08 23:02:00,
2013-06-08 19:12:00,62.0,58.0,-100.00,NW,320,2.0,4.0,86,0.00,,,-99.99,,2013-06-08 23:12:00,
2013-06-08 19:22:00,63.0,59.0,-100.00,NNW,335,2.0,6.0,86,0.00,,,-99.99,,2013-06-08 23:22:00,
2013-06-08 19:32:00,63.0,58.0,-100.00,NNW,340,5.0,7.0,84,0.00,,,-99.99,,2013-06-08 23:32:00,
2013-06-08 19:42:00,62.0,58.0,-100.00,NNW,340,2.0,7.0,84,0.00,,,-99.99,,2013-06-08 23:42:00,
2013-06-08 19:52:00,62.0,58.0,-100.00,NNW,335,3.0,6.0,85,0.00,,,-99.99,,2013-06-08 23:52:00,
2013-06-08 20:02:00,62.0,58.0,-100.00,NW,325,1.0,7.0,84,0.00,,,-99.99,,2013-06-09 00:02:00,
2013-06-08 20:12:00,62.0,57.0,-100.00,NNW,345,3.0,7.0,85,0.00,,,-99.99,,2013-06-09 00:12:00,
2013-06-08 20:22:00,62.0,57.0,-100.00,WSW,240,1.0,7.0,85,0.00,,,-99.99,,2013-06-09 00:22:00,
2013-06-08 20:32:00,61.0,58.0,-100.00,SW,225,0.0,2.0,87,0.00,,,-99.99,,2013-06-09 00:32:00,
2013-06-08 20:42:00,61.0,58.0,-100.00,SW,225,0.0,2.0,87,0.00,,,-99.99,,2013-06-09 00:42:00,
2013-06-08 20:52:00,60.0,57.0,-100.00,SE,130,0.0,4.0,90,0.00,,,-99.99,,2013-06-09 00:52:00,
2013-06-08 21:02:00,60.0,57.0,-100.00,SW,225,1.0,2.0,90,0.00,,,-99.99,,2013-06-09 01:02:00,
2013-06-08 21:12:00,60.0,57.0,-100.00,NNW,345,1.0,2.0,91,0.00,,,-99.99,,2013-06-09 01:12:00,
2013-06-08 21:22:00,60.0,57.0,-100.00,NW,325,2.0,4.0,91,0.00,,,-99.99,,2013-06-09 01:22:00,
2013-06-08 21:32:00,60.0,57.0,-100.00,North,0,1.0,4.0,91,0.00,,,-99.99,,2013-06-09 01:32:00,
2013-06-08 21:42:00,59.0,57.0,-100.00,WNW,295,1.0,3.0,91,0.00,,,-99.99,,2013-06-09 01:42:00,
2013-06-08 21:52:00,59.0,57.0,-100.00,NNW,335,1.0,4.0,91,0.00,,,-99.99,,2013-06-09 01:52:00,
2013-06-08 22:02:00,59.0,57.0,-100.00,NW,325,2.0,3.0,92,0.00,,,-99.99,,2013-06-09 02:02:00,
2013-06-08 22:12:00,59.0,57.0,-100.00,NW,315,2.0,6.0,92,0.00,,,-99.99,,2013-06-09 02:12:00,
2013-06-08 22:22:00,59.0,56.0,-100.00,NNW,330,3.0,6.0,91,0.00,,,-99.99,,2013-06-09 02:22:00,
2013-06-08 22:32:00,59.0,56.0,-100.00,NNW,340,2.0,4.0,90,0.00,,,-99.99,,2013-06-09 02:32:00,
2013-06-08 22:42:00,59.0,56.0,-100.00,NNW,345,3.0,4.0,91,0.00,,,-99.99,,2013-06-09 02:42:00,
2013-06-08 22:52:00,59.0,56.0,-100.00,NNW,345,2.0,4.0,91,0.00,,,-99.99,,2013-06-09 02:52:00,
2013-06-08 23:02:00,59.0,56.0,-100.00,NNW,345,1.0,4.0,91,0.00,,,-99.99,,2013-06-09 03:02:00,
2013-06-08 23:12:00,59.0,56.0,-100.00,NNW,345,2.0,5.0,91,0.00,,,-99.99,,2013-06-09 03:12:00,
2013-06-08 23:22:00,59.0,56.0,-100.00,NNW,340,2.0,4.0,91,0.00,,,-99.99,,2013-06-09 03:22:00,
2013-06-08 23:33:00,58.0,56.0,-100.00,North,350,2.0,4.0,91,0.00,,,-99.99,,2013-06-09 03:33:00,
2013-06-08 23:43:00,58.0,56.0,-100.00,NNW,345,3.0,4.0,92,0.00,,,-99.99,,2013-06-09 03:43:00,
2013-06-08 23:53:00,58.0,56.0,-100.00,NNE,15,2.0,4.0,92,0.00,,,-99.99,,2013-06-09 03:53:00,